DELTA 1 DEB, 7175

Orbit data source: Space-Track

DELTA 1 DEB, 7175 is space debris in SSO originally from a launch on Tue, 06 Nov 1973 UTC launched from the Air Force Western Test Range (AFWTR). Debris objects in space refer to the collection of defunct objects orbiting the Earth. Examples of debris include non-operational satellites, rocket bodies, and fragments generated from explosions, collisions, or faulty payload assembly.

Loading next visibility...
Identifier
7175, 1973-086EM
Orbit
SSO
Country
Flag of USUS
Related business
Manufacturer
Unknown
Mission
Spacecraft
Bus & Motor
Unknown
Mass
Unknown
Launch date (UTC)
1973-11-06 (52 years ago)
Launch vehicle
Unknown
Launch site
Air Force Western Test Range (AFWTR)
Object type
Payload
Rocket body
Debris
Shape & HBR
Unknown shape, 0.1 m
Radar Cross Section
Small (<0.1 m²)

Expand to show TLE details & history
Last TLE update: 17 hours ago

TLE from 17 hours ago
0 DELTA 1 DEB
1 07175U 73086EM  26033.53764509  .00000402  00000-0  15225-2 0  9990
2 07175 102.6110 232.3763 0191439 129.5323 300.1948 12.94045617451533
Epoch: 2026-02-02T12:54Z
TLE epoch observation values (Epoch: 2026-02-02T12:54:12.535Z)
Latitude
64.72279°
Longitude
-122.03208°
Altitude
1,224.799 km
Speed
7.282 km/s
True Right ascension
13h 37m 00s
True Declination
64° 35' 53"
Sunlit
Object was in daylight at epoch
Visualization orbit readout
Latitude
Unknown
Longitude
Unknown
Altitude
Unknown
Speed
Unknown
Apparent Right ascension
Unknown
Apparent Declination
Unknown
Sunlit
N/A
Visualization observer readout
Local Sidereal Time
07:46:41
Azimuth
Unknown
Elevation
Unknown
Doppler factor
Unknown
Orbital elements
Apogee altitude
1,429.716 km
Perigee altitude
1,136.386 km
Semi-major axis
7,661.188 km
Eccentricity
0.01914
Inclination
102.611°
RAAN
232.3763°
Arg. of periapsis
129.5323°
True anomaly
298.27599°
Mean anomaly
300.1948°
Eccentric anomaly
299.23767°
Mean motion
3.23667 °/min
Orbital period
111.23 mins
BSTAR
0.0015225
Loading maneuver chart data...
Computing Atmospheric mass density...
Loading historical data...
Loading historical data...
Loading historical data...
Loading historical data...
Loading historical data...
Loading historical data...
Loading historical data...

Documentation

Showing up to 5 results
|